Location: Newark
(49.3000°N, 9.4667°E)
Time: 23:52:28
(UTC+00:00)

Tiros 1 - Pass Details

Date: 31 May 2019
Orbit: 631 x 664 km, 48.4° (Epoch: 19 June)

Event Time Altitude Azimuth Distance (km) Brightness Sun altitude
Rises 13:40:35 0° 278° (W) 2,945 11.0 51.0°
Reaches altitude 10° 13:44:02 10° 252° (WSW) 2,039 10.6 50.5°
Maximum altitude 13:46:16 13° 223° (SW) 1,824 10.4 50.2°
Drops below altitude 10° 13:48:31 10° 195° (SSW) 2,044 10.3 49.9°
Sets 13:51:59 0° 169° (SSE) 2,957 10.7 49.4°
